FW8708 Weather Reports


time (UTC)temp
F
wind
direction
speed
knots
gust
knots
rain 1hr
in
rain 24hr
in
rain mn
in
humidity
%
barometer
mb
20260505153049 67 133 1.7 7.0 0.00 0.00 0.00 55 1016.7
20260505152548 67 126 1.7 5.2 0.00 0.00 0.00 55 1016.8
20260505152047 67 115 2.6 5.2 0.00 0.00 0.00 56 1016.8
20260505151547 67 113 2.6 5.2 0.00 0.00 0.00 56 1016.9
20260505151050 67 113 1.7 5.2 0.00 0.00 0.00 59 1017.0
20260505150545 67 113 1.7 6.1 0.00 0.00 0.00 59 1017.0
20260505140537 65 217 2.6 6.1 0.00 0.00 0.00 54 1016.5
20260505125022 60 217 2.6 5.2 0.00 0.00 0.00 60 1016.4
20260505124520 60 213 2.6 4.3 0.00 0.00 0.00 61 1016.6
20260505124018 59 220 0.9 4.3 0.00 0.00 0.00 65 1016.7
20260505123517 59 153 1.7 4.3 0.00 0.00 0.00 66 1016.6
20260505123020 58 151 0.9 2.6 0.00 0.00 0.00 66 1016.7
20260505122518 57 205 0.9 2.6 0.00 0.00 0.00 67 1016.7
20260505122018 57 205 1.7 2.6 0.00 0.00 0.00 68 1016.6
20260505121516 56 206 0.9 3.5 0.00 0.00 0.00 69 1016.4
20260505121016 56 206 1.7 3.5 0.00 0.00 0.00 69 1016.4
20260505120514 55 206 1.7 3.5 0.00 0.00 0.00 70 1016.4
20260505120015 54 206 1.7 3.5 0.00 0.00 0.00 71 1016.4
20260505115515 54 207 1.7 2.6 0.00 0.00 0.00 74 1016.4
20260505115014 53 207 0.0 1.7 0.00 0.00 0.00 77 1016.4
20260505114514 52 207 0.0 1.7 0.00 0.00 0.00 75 1016.4
20260505114013 51 207 0.0 1.7 0.00 0.00 0.00 78 1016.4
20260505113512 50 207 0.9 1.7 0.00 0.00 0.00 80 1016.4
20260505113014 49 207 0.9 2.6 0.00 0.00 0.00 82 1016.4
20260505112515 48 207 1.7 2.6 0.00 0.00 0.00 83 1016.4
20260505112012 48 207 0.9 2.6 0.00 0.00 0.00 84 1016.4
20260505111514 47 207 0.9 2.6 0.00 0.00 0.00 83 1016.4
20260505111012 47 207 0.9 3.5 0.00 0.00 0.00 83 1016.3
20260505110510 47 207 1.7 3.5 0.00 0.00 0.00 84 1016.4
20260505102006 45 207 0.9 2.6 0.00 0.00 0.00 84 1016.1
20260505101505 46 207 1.7 2.6 0.00 0.00 0.00 84 1015.9
20260505101004 46 207 0.9 2.6 0.00 0.00 0.00 84 1015.9
20260505100504 46 207 1.7 2.6 0.00 0.00 0.00 84 1016.0
20260505100004 46 207 0.9 2.6 0.00 0.00 0.00 83 1016.0
20260505095505 46 207 0.9 2.6 0.00 0.00 0.00 83 1015.9
20260505095004 46 207 0.9 2.6 0.00 0.00 0.00 83 1015.8
20260505094501 46 207 0.9 2.6 0.00 0.00 0.00 83 1015.9
20260505094001 46 207 0.9 3.5 0.00 0.00 0.00 82 1015.9
20260505093501 47 207 1.7 4.3 0.00 0.00 0.00 82 1015.7
20260505093101 47 207 2.6 4.3 0.00 0.00 0.00 82 1015.7
20260505092600 47 206 1.7 3.5 0.00 0.00 0.00 82 1015.8
20260505092100 47 206 1.7 3.5 0.00 0.00 0.00 82 1015.9
20260505091600 46 206 1.7 3.5 0.00 0.00 0.00 83 1015.9
20260505091058 46 206 0.9 2.6 0.00 0.00 0.00 82 1015.9
20260505090557 46 206 0.9 1.7 0.00 0.00 0.00 82 1015.9
20260505090058 47 206 0.0 1.7 0.00 0.00 0.00 81 1015.8
20260505085555 47 206 0.0 1.7 0.00 0.00 0.00 80 1015.8
20260505085055 47 206 0.0 0.0 0.00 0.00 0.00 79 1015.8
20260505084602 47 206 0.0 1.7 0.00 0.00 0.00 78 1015.7
20260505084054 48 206 0.0 1.7 0.00 0.00 0.00 77 1015.7
20260505083549 49 206 0.0 0.9 0.00 0.00 0.00 75 1015.7
20260505083103 49 206 0.0 0.9 0.00 0.00 0.00 74 1015.8
20260505082552 50 206 0.0 4.3 0.00 0.00 0.00 74 1015.7
20260505082048 51 206 0.9 4.3 0.00 0.00 0.00 72 1015.7
20260505081548 51 207 0.9 2.6 0.00 0.00 0.00 72 1015.6
20260505081048 51 206 0.0 2.6 0.00 0.00 0.00 71 1015.5
20260505080548 52 206 0.0 4.3 0.00 0.00 0.00 71 1015.4
20260505080047 51 206 0.9 4.3 0.00 0.00 0.00 71 1015.5
20260505075551 51 204 0.9 3.5 0.00 0.00 0.00 72 1015.3
20260505075046 51 204 0.0 5.2 0.00 0.00 0.00 72 1015.2
20260505074546 50 195 1.7 5.2 0.00 0.00 0.00 74 1015.1
20260505074045 49 193 1.7 3.5 0.00 0.00 0.00 75 1015.1
20260505073545 49 192 0.9 2.6 0.00 0.00 0.00 75 1015.0
20260505073048 49 192 1.7 2.6 0.00 0.00 0.00 74 1015.1
20260505072541 50 192 0.9 2.6 0.00 0.00 0.00 73 1015.0
20260505072043 50 192 0.9 2.6 0.00 0.00 0.00 72 1015.0
20260505071540 51 192 0.0 3.5 0.00 0.00 0.00 70 1015.1
20260505071038 51 192 0.9 3.5 0.00 0.00 0.00 69 1015.1
20260505070537 52 192 0.0 0.9 0.00 0.00 0.00 68 1015.2
20260505070035 53 191 0.0 1.7 0.00 0.00 0.00 66 1015.2
20260505065534 54 191 0.0 1.7 0.00 0.00 0.00 64 1015.2
20260505065032 55 191 0.0 1.7 0.00 0.00 0.00 63 1015.2
20260505064537 55 191 0.0 4.3 0.00 0.00 0.00 62 1015.2
20260505064030 56 191 0.0 4.3 0.00 0.00 0.00 61 1015.2
20260505063529 56 209 1.7 5.2 0.00 0.00 0.00 61 1015.3
20260505063029 56 198 2.6 7.0 0.00 0.00 0.00 61 1015.3
20260505062529 56 229 4.3 7.0 0.00 0.00 0.00 61 1015.4
20260505062031 56 196 1.7 6.1 0.00 0.00 0.00 60 1015.3
20260505061528 56 236 0.9 6.1 0.00 0.00 0.00 60 1015.4
20260505055522 57 205 0.9 6.1 0.00 0.00 0.00 59 1015.4
20260505055022 57 188 3.5 8.7 0.00 0.00 0.00 59 1015.5
20260505054540 57 205 3.5 8.7 0.00 0.00 0.00 59 1015.4
20260505054020 57 157 1.7 9.6 0.00 0.00 0.00 58 1015.4
20260505053521 57 167 3.5 9.6 0.00 0.00 0.00 58 1015.4
20260505053018 57 182 4.3 8.7 0.00 0.00 0.00 58 1015.3
20260505052517 57 157 3.5 8.7 0.00 0.00 0.00 58 1015.4
20260505052017 57 178 4.3 8.7 0.00 0.00 0.00 59 1015.4
20260505051516 57 182 3.5 7.0 0.00 0.00 0.00 58 1015.3
20260505051015 57 186 3.5 7.0 0.00 0.00 0.00 58 1015.3
20260505050513 57 185 3.5 7.0 0.00 0.00 0.00 58 1015.4
20260505041506 58 197 2.6 7.0 0.00 0.00 0.00 56 1015.5
20260505041004 59 220 3.5 9.6 0.00 0.00 0.00 55 1015.6
20260505040504 59 182 4.3 12.2 0.00 0.00 0.00 55 1015.5
20260505040004 58 192 3.5 8.7 0.00 0.00 0.00 55 1015.7
20260505035502 59 211 3.5 8.7 0.00 0.00 0.00 55 1015.6
20260505035002 59 224 5.2 10.4 0.00 0.00 0.00 55 1015.7
20260505034502 59 188 6.1 10.4 0.00 0.00 0.00 54 1015.7
20260505034102 59 219 6.1 10.4 0.00 0.00 0.00 54 1015.8
20260505033501 59 189 2.6 8.7 0.00 0.00 0.00 54 1015.9
20260505033001 59 165 3.5 8.7 0.00 0.00 0.00 54 1016.0
20260505032502 59 187 5.2 10.4 0.00 0.00 0.00 53 1016.0
20260505032100 59 175 5.2 10.4 0.00 0.00 0.00 53 1016.1
20260505031606 60 229 6.1 10.4 0.00 0.00 0.00 53 1016.0
20260505031101 60 178 4.3 10.4 0.00 0.00 0.00 53 1016.0
20260505030602 60 188 5.2 8.7 0.00 0.00 0.00 53 1016.0
20260505030124 60 232 5.2 13.0 0.00 0.00 0.00 52 1016.2
20260505025600 60 190 7.0 13.0 0.00 0.00 0.00 52 1016.2
20260505025101 60 215 5.2 12.2 0.00 0.00 0.00 52 1016.2
20260505024612 60 177 4.3 8.7 0.00 0.00 0.00 53 1016.3
20260505024058 60 185 4.3 9.6 0.00 0.00 0.00 53 1016.3
20260505023559 60 219 4.3 9.6 0.00 0.00 0.00 53 1016.3
20260505023058 60 209 3.5 7.8 0.00 0.00 0.00 52 1016.2
20260505022603 60 205 3.5 8.7 0.00 0.00 0.00 52 1016.1
20260505022059 60 218 4.3 9.6 0.00 0.00 0.00 52 1016.3
20260505021559 60 210 3.5 10.4 0.00 0.00 0.00 52 1016.3
20260505021058 60 203 3.5 10.4 0.00 0.00 0.00 52 1016.2
20260505020558 61 192 5.2 12.2 0.00 0.00 0.00 52 1016.2
20260505020108 61 192 5.2 8.7 0.00 0.00 0.00 52 1016.1
20260505015557 61 198 5.2 12.2 0.00 0.00 0.00 53 1016.1
20260505015100 61 202 7.0 12.2 0.00 0.00 0.00 53 1016.1
20260505014558 61 188 5.2 10.4 0.00 0.00 0.00 54 1016.2
20260505014056 61 188 4.3 8.7 0.00 0.00 0.00 54 1016.2
20260505013556 61 200 4.3 7.0 0.00 0.00 0.00 54 1016.2
20260505013056 61 153 2.6 6.1 0.00 0.00 0.00 53 1016.1
20260505012558 61 178 3.5 6.1 0.00 0.00 0.00 53 1016.1
20260505012056 61 167 4.3 8.7 0.00 0.00 0.00 53 1016.1
20260505011601 62 176 4.3 8.7 0.00 0.00 0.00 52 1016.1
20260505011055 62 185 5.2 8.7 0.00 0.00 0.00 52 1016.0
20260505010555 62 161 6.1 10.4 0.00 0.00 0.00 52 1016.0
20260505010110 62 202 7.0 13.9 0.00 0.00 0.00 51 1015.9
20260505005555 62 220 6.1 14.8 0.00 0.00 0.00 52 1015.9
20260505005056 62 192 5.2 10.4 0.00 0.00 0.00 52 1015.8
20260505004624 62 184 4.3 10.4 0.00 0.00 0.00 52 1015.7
20260505004054 62 211 3.5 9.6 0.00 0.00 0.00 53 1015.6
20260505003555 62 178 4.3 10.4 0.00 0.00 0.00 53 1015.6
20260505003059 62 188 5.2 7.8 0.00 0.00 0.00 53 1015.5
20260505002555 62 172 3.5 7.8 0.00 0.00 0.00 53 1015.5
20260505002054 63 163 5.2 7.8 0.00 0.00 0.00 53 1015.5
20260505001554 63 178 1.7 7.8 0.00 0.00 0.00 54 1015.5
20260505001053 63 172 3.5 7.8 0.00 0.00 0.00 54 1015.6
20260505000555 63 180 2.6 7.0 0.00 0.00 0.00 54 1015.5
20260505000107 64 181 3.5 7.0 0.00 0.00 0.00 53 1015.5
20260504235553 64 174 3.5 9.6 0.00 0.00 0.00 52 1015.5
20260504235053 65 175 7.0 10.4 0.00 0.00 0.00 51 1015.5
20260504234553 65 173 3.5 8.7 0.00 0.00 0.00 52 1015.5
20260504234052 66 180 6.1 10.4 0.00 0.00 0.00 50 1015.5
20260504233552 66 203 6.1 10.4 0.00 0.00 0.00 49 1015.4
20260504233052 66 225 5.2 7.8 0.00 0.00 0.00 50 1015.3
20260504232552 67 185 2.6 7.8 0.00 0.00 0.00 50 1015.3
20260504232051 67 175 5.2 8.7 0.00 0.00 0.00 49 1015.3
20260504231620 67 171 5.2 8.7 0.00 0.00 0.00 49 1015.2
20260504231051 67 232 6.1 14.8 0.00 0.00 0.00 49 1015.2
20260504230551 67 168 5.2 15.6 0.00 0.00 0.00 49 1015.1
20260504230051 68 198 5.2 15.6 0.00 0.00 0.00 47 1015.1
20260504225551 68 175 6.1 9.6 0.00 0.00 0.00 47 1015.2
20260504225054 68 171 5.2 10.4 0.00 0.00 0.00 47 1015.3
20260504224550 68 198 7.0 10.4 0.00 0.00 0.00 46 1015.2
20260504224049 68 187 5.2 10.4 0.00 0.00 0.00 46 1015.1
20260504223549 69 187 4.3 10.4 0.00 0.00 0.00 46 1015.1
20260504223049 69 188 6.1 10.4 0.00 0.00 0.00 46 1015.2
20260504222549 69 180 5.2 9.6 0.00 0.00 0.00 46 1015.2
20260504222048 69 198 7.0 9.6 0.00 0.00 0.00 45 1015.2
20260504221625 69 190 5.2 10.4 0.00 0.00 0.00 46 1015.2
20260504221048 69 211 4.3 10.4 0.00 0.00 0.00 47 1015.2
20260504220547 69 187 4.3 12.2 0.00 0.00 0.00 48 1015.2
20260504220047 68 187 7.0 13.9 0.00 0.00 0.00 46 1015.2
20260504215546 69 169 4.3 9.6 0.00 0.00 0.00 47 1015.3
20260504215045 69 179 5.2 9.6 0.00 0.00 0.00 47 1015.3
20260504214545 69 187 4.3 8.7 0.00 0.00 0.00 46 1015.3
20260504214044 69 190 3.5 7.8 0.00 0.00 0.00 46 1015.4
20260504213544 69 186 3.5 10.4 0.00 0.00 0.00 47 1015.3
20260504213045 69 203 4.3 11.3 0.00 0.00 0.00 47 1015.4
20260504212545 69 202 6.1 11.3 0.00 0.00 0.00 48 1015.4
20260504212043 69 167 4.3 10.4 0.00 0.00 0.00 47 1015.4
20260504211542 69 171 4.3 11.3 0.00 0.00 0.00 49 1015.3
20260504211041 69 205 6.1 11.3 0.00 0.00 0.00 48 1015.5
20260504210543 68 182 3.5 10.4 0.00 0.00 0.00 50 1015.4
20260504210046 68 184 4.3 13.0 0.00 0.00 0.00 49 1015.5
20260504205542 69 207 7.8 10.4 0.00 0.00 0.00 48 1015.4
20260504205039 69 233 3.5 8.7 0.00 0.00 0.00 50 1015.5
20260504204540 69 180 4.3 12.2 0.00 0.00 0.00 49 1015.6
20260504204041 69 239 5.2 12.2 0.00 0.00 0.00 50 1015.6
20260504203539 70 265 7.0 12.2 0.00 0.00 0.00 47 1015.5
20260504203038 70 210 4.3 10.4 0.00 0.00 0.00 49 1015.5
20260504202537 70 274 4.3 13.9 0.00 0.00 0.00 49 1015.6
20260504202036 69 232 7.8 13.9 0.00 0.00 0.00 47 1015.6
20260504201535 69 242 9.6 16.5 0.00 0.00 0.00 48 1015.7
20260504201037 69 271 7.8 16.5 0.00 0.00 0.00 50 1015.9
20260504200534 69 265 7.0 14.8 0.00 0.00 0.00 49 1015.8
20260504200033 69 286 7.0 15.6 0.00 0.00 0.00 50 1015.8
20260504195534 68 250 7.0 16.5 0.00 0.00 0.00 51 1015.8
20260504195031 68 247 10.4 16.5 0.00 0.00 0.00 50 1016.1
20260504194531 68 209 7.8 18.2 0.00 0.00 0.00 51 1016.0
20260504194030 68 199 9.6 16.5 0.00 0.00 0.00 51 1016.2
20260504193631 68 219 6.1 13.0 0.00 0.00 0.00 52 1016.1
20260504193028 67 250 8.7 14.8 0.00 0.00 0.00 52 1016.3
20260504192527 68 290 7.0 14.8 0.00 0.00 0.00 52 1016.4
20260504192028 68 275 7.0 11.3 0.00 0.00 0.00 50 1016.5
20260504191537 68 281 7.0 13.0 0.00 0.00 0.00 51 1016.5
20260504191025 68 244 6.1 13.0 0.00 0.00 0.00 53 1016.7
20260504190523 67 270 5.2 12.2 0.00 0.00 0.00 53 1016.7
20260504190024 66 214 4.3 11.3 0.00 0.00 0.00 60 1016.9
20260504185520 66 270 6.1 11.3 0.00 0.00 0.00 55 1017.0
20260504185020 66 270 6.1 11.3 0.00 0.00 0.00 55 1017.0
20260504184538 66 265 6.1 11.3 0.00 0.00 0.00 53 1017.1
20260504184020 66 270 4.3 7.8 0.00 0.00 0.00 54 1017.0
20260504183518 66 292 5.2 9.6 0.00 0.00 0.00 55 1017.0
20260504183019 66 270 5.2 10.4 0.00 0.00 0.00 53 1017.1
20260504182522 66 223 7.0 13.9 0.00 0.00 0.00 55 1017.2
20260504182015 66 272 8.7 13.9 0.00 0.00 0.00 54 1017.2
20260504181518 65 267 9.6 13.9 0.00 0.00 0.00 55 1017.3
20260504181015 65 252 2.6 11.3 0.00 0.00 0.00 56 1017.3
20260504180514 65 273 5.2 11.3 0.00 0.00 0.00 56 1017.3
20260504180012 65 259 5.2 8.7 0.00 0.00 0.00 55 1017.3
20260504175513 65 263 4.3 12.2 0.00 0.00 0.00 57 1017.4
20260504175015 64 317 6.1 14.8 0.00 0.00 0.00 57 1017.5
20260504174511 65 224 8.7 13.9 0.00 0.00 0.00 56 1017.5
20260504174010 65 239 7.0 12.2 0.00 0.00 0.00 56 1017.5
20260504173508 64 260 7.8 14.8 0.00 0.00 0.00 56 1017.7
20260504173014 64 210 8.7 14.8 0.00 0.00 0.00 56 1017.7
20260504172507 64 235 6.1 10.4 0.00 0.00 0.00 56 1017.8
20260504172006 63 232 6.1 12.2 0.00 0.00 0.00 57 1017.8
20260504171505 63 248 6.1 13.9 0.00 0.00 0.00 59 1017.7
20260504171005 63 235 5.2 13.9 0.00 0.00 0.00 58 1017.8
20260504170504 63 244 5.2 13.0 0.00 0.00 0.00 62 1017.8